Regional Weather Roundup
Issued by NWS Huntsville, AL

Home | Current Version | Previous Version | Text Only | Print | Product List | Glossary On
Versions: 1 2 3 4 5 6 7 8 9 10 11 12 13 14 15 16 17 18 19 20 21 22 23 24 25 26 27 28 29 30 31 32 33 34 35 36 37 38 39 40 41 42 43 44 45 46 47 48 49 50
323
ASUS44 KHUN 281810
RWRHUN

WEATHER ROUNDUP FOR THE TENNESSEE VALLEY
NATIONAL WEATHER SERVICE HUNTSVILLE AL
100 PM CDT TUE MAR 28 2017

ALZ001>004-281900-
NORTHWEST ALABAMA

CITY           SKY/WX    TMP DP  RH WIND       PRES   REMARKS
COURTLAND HCN    N/A     64 N/A N/A NW3         N/A
RUSSELLVILLE     N/A     66 N/A N/A MISG        N/A
SHOALS AIRPORT CLOUDY    69  59  70 SW5       30.03F
6HR MIN TEMP:  60; 6HR MAX TEMP:  69;

SHOALS TVA RES   N/A     66 N/A N/A MISG        N/A
$$

ALZ005>007-016-281900-
NORTH CENTRAL ALABAMA

CITY           SKY/WX    TMP DP  RH WIND       PRES   REMARKS
CULLMAN AG STN   N/A     72 N/A N/A W3          N/A
DECATUR AP     CLOUDY    66  59  78 W3        30.03S
6HR MIN TEMP:  56; 6HR MAX TEMP:  67;

HUNTSVILLE AP  PTSUNNY   69  62  78 N5        30.03S
6HR MIN TEMP:  57; 6HR MAX TEMP:  69; 6HR PCP: TRACE;

MERIDIANVILLE  PTSUNNY   66  55  68 CALM      30.03S
REDSTONE ARSN  PTSUNNY   67  61  80 W10       30.02S
VINEMONT AP    MOCLDY    69  62  81 N5        30.04S
$$

ALZ008>010-281900-
NORTHEAST ALABAMA

CITY           SKY/WX    TMP DP  RH WIND       PRES   REMARKS
ALBERTVILLE    PTSUNNY   72  68  88 W8        30.01F
FORT PAYNE     CLOUDY    68  59  73 NW6       30.01S
SCOTTSBORO AP  PTSUNNY   72  61  68 SW9       30.01F
SCOTTSBORO HCN   N/A     68 N/A N/A MISG        N/A
VALLEY HEAD      N/A     66 N/A N/A MISG        N/A
$$

TNZ076-096-097-281900-
SOUTHEASTERN MIDDLE TENNESSEE

CITY           SKY/WX    TMP DP  RH WIND       PRES   REMARKS
TULLAHOMA      CLOUDY    63  55  77 N5          N/A
WINCHESTER     PTSUNNY   64  57  77 W6        30.03F
$$

...SURROUNDING SITES...

CITY           SKY/WX    TMP DP  RH WIND       PRES   REMARKS
ATLANTA        MOSUNNY   78  62  57 W10G18    29.99F
ANNISTON       SUNNY     78  66  66 W10       29.99F
BIRMINGHAM     MOSUNNY   76  64  66 SW8       30.02F
CHATTANOOGA    MOSUNNY   71  58  63 W7        30.00F
CORINTH        FAIR      68  59  73 VRB3      30.01F
DALTON         PTSUNNY   70  61  73 W5        30.00S
GADSDEN        PTSUNNY   76  64  66 VRB5      29.99F
GOLDEN TRNGL   PTSUNNY   79  63  57 CALM      29.95F
HALEYVILLE     PTSUNNY   70  64  81 W7        30.04F
JACKSON TN     MOSUNNY   69  57  65 NE5       30.03F
MEMPHIS        MOSUNNY   74  57  55 NE6       30.01F
NASHVILLE      PTSUNNY   69  51  52 CALM      30.03S
OXFORD MS      CLOUDY    77  57  50 E3        30.01F
ROME           PTSUNNY   72  62  71 VRB6      29.99F
SAVANNAH       SUNNY     70  59  68 CALM      30.01F
TUPELO         PTSUNNY   76  60  57 CALM      30.00S
TUSCALOOSA     MOSUNNY   76  66  71 CALM      30.01F
$$

...GULF COAST WEATHER...

CITY           SKY/WX    TMP DP  RH WIND       PRES   REMARKS
GULFPORT       MOSUNNY   79  70  74 S10G20    30.02F
PASCAGOULA     SUNNY     80  65  59 S10       30.03F
MOBILE         PTSUNNY   80  66  62 S9        30.03F
GULF SHORES    PTCLDY    77  68  72 MISG      30.05S
PENSACOLA      MOSUNNY   78  69  73 S15       30.04F
DESTIN         SUNNY     79  74  84 S8        30.05F
PANAMA CITY    MOSUNNY   77  68  74 SW9       30.05F
APPALACHICOLA  PTSUNNY   75  69  81 S13       30.06F
$$





USA.gov is the U.S. government's official web portal to all federal, state and local government web resources and services.